Home   Weather   Alicante   Past weeks

Flag for Spain Past Weather in Alicante, Spain — Yesterday and Last 2 Weeks

Now
77 °F

Sunny.


Feels Like: 79 °F
Forecast: 77 / 88 °F
Wind: 1 mph from North

Location: Alicante / El Altet

Current Time: Jul 28, 2017 at 9:04:29 am

Latest Report: Jul 28, 2017 at 8:30 am


Visibility: 10 mi

Pressure: 29.95 "Hg

Humidity: 69%

Dew Point: 66 °F

Location of AlicanteLocation

Past Weather in Alicante — Graph

°F

Alicante Temperature Yesterday

Maximum temperature yesterday: 90 °F (at 2:00 pm)
Minimum temperature yesterday: 73 °F (at 5:00 am)
Average temperature yesterday: 82 °F

High & Low Weather Summary for the Past Weeks

 TemperatureHumidityPressure
High90 °F (Jul 27, 2:00 pm)100% (Jul 20, 8:00 am)30.12 "Hg (Jul 20, 8:00 am)
Low70 °F (Jul 17, 5:30 am)31% (Jul 16, 12:30 pm)29.80 "Hg (Jul 20, 6:00 am)
Average80 °F71%29.98 "Hg
* Reported Jul 13 8:00 am — Jul 28 8:00 am, Alicante. Weather by CustomWeather, © 2017

Note: Actual official high and low records may vary slightly from our data, if they occured in-between our weather recording intervals... More about our weather records

Advertising

Alicante Weather History for the Previous 24 Hours

Scroll right to see more
 ConditionsComfort  
Time TempWeatherWind HumidityBarometerVisibility
8:00 am
Fri, Jul 28
73 °FSunny.1 mph74%29.95 "Hg10 mi
7:30 am72 °FSunny.1 mph78%29.95 "Hg10 mi
7:00 am73 °FSunny.No wind74%29.92 "Hg10 mi
6:30 am72 °FClear.3 mph78%29.92 "Hg10 mi
6:00 am72 °FClear.6 mph78%29.92 "Hg10 mi
5:30 am73 °FClear.6 mph74%29.92 "Hg10 mi
5:00 am73 °FClear.6 mph74%29.92 "Hg10 mi
4:30 am73 °FClear.5 mph78%29.92 "Hg10 mi
4:00 am72 °FClear.3 mph83%29.92 "Hg10 mi
3:30 am73 °FClear.3 mph78%29.92 "Hg10 mi
3:00 am73 °FClear.3 mph78%29.92 "Hg10 mi
2:30 am73 °FClear.6 mph78%29.92 "Hg10 mi
2:00 am75 °FClear.5 mph74%29.92 "Hg10 mi
1:30 am75 °FClear.5 mph78%29.92 "Hg10 mi
1:00 am77 °FClear.5 mph79%29.95 "Hg10 mi
12:30 am77 °FClear.3 mph79%29.95 "Hg10 mi
12:00 am77 °FClear.3 mph79%29.95 "Hg10 mi
11:30 pm
Thu, Jul 27
79 °FClear.3 mph74%29.95 "Hg10 mi
11:00 pm79 °FClear.2 mph70%29.95 "Hg10 mi
10:30 pm81 °FClear.2 mph70%29.95 "Hg10 mi
10:00 pm81 °FClear.No wind70%29.92 "Hg10 mi
9:30 pm81 °FClear.1 mph66%29.92 "Hg10 mi
9:00 pm82 °FPassing clouds.3 mph62%29.92 "HgN/A
8:30 pm84 °FPassing clouds.3 mph55%29.92 "HgN/A
8:00 pm84 °FPassing clouds.3 mph55%29.92 "HgN/A
7:30 pm86 °FPassing clouds.6 mph52%29.92 "HgN/A
7:00 pm88 °FPassing clouds.5 mph46%29.92 "HgN/A
6:30 pm88 °FPassing clouds.6 mph49%29.92 "HgN/A
6:00 pm88 °FPassing clouds.7 mph46%29.92 "HgN/A
5:30 pm88 °FPassing clouds.7 mph43%29.92 "HgN/A
5:00 pm90 °FPassing clouds.7 mph41%29.95 "HgN/A
4:30 pm90 °FPassing clouds.8 mph41%29.95 "HgN/A
4:00 pm90 °FPassing clouds.8 mph43%29.95 "HgN/A
3:30 pm90 °FPassing clouds.8 mph49%29.95 "HgN/A
3:00 pm90 °FPassing clouds.8 mph46%29.95 "HgN/A
2:30 pm88 °FPassing clouds.9 mph49%29.98 "HgN/A
2:00 pm90 °FPassing clouds.9 mph46%29.98 "HgN/A
1:30 pm88 °FPassing clouds.8 mph46%29.98 "HgN/A
1:00 pm88 °FSunny.6 mph52%29.98 "Hg10 mi
12:30 pm88 °FSunny.7 mph52%29.98 "Hg10 mi
12:00 pm86 °FSunny.5 mph52%30.01 "Hg10 mi
11:30 am86 °FPassing clouds.6 mph49%30.01 "HgN/A
11:00 am84 °FPassing clouds.6 mph55%30.01 "HgN/A
10:30 am84 °FPassing clouds.6 mph58%30.01 "HgN/A
10:00 am81 °FPassing clouds.6 mph66%30.01 "HgN/A
9:30 am81 °FPassing clouds.7 mph74%30.01 "HgN/A
9:00 am79 °FPassing clouds.6 mph79%29.98 "HgN/A
Weather by CustomWeather, © 2017

See weather overviewHow to use our weather pages